Time,TemperatureF,DewpointF,PressureIn,WindDirection,WindDirectionDegrees,WindSpeedMPH,WindSpeedGustMPH,Humidity,HourlyPrecipIn,Conditions,Clouds,dailyrainin,SoftwareType,DateUTC
2013-03-07 00:04:00,52.5,49.0,30.00,East,86,0.0,0.0,88,0.00,,,0.00,Wunderground v.1.15,2013-03-07 08:04:00,
2013-03-07 00:14:00,52.4,49.3,30.00,East,87,0.0,0.0,89,0.00,,,0.00,Wunderground v.1.15,2013-03-07 08:14:00,
2013-03-07 00:23:00,52.3,49.2,30.00,East,88,0.0,0.0,89,0.00,,,0.00,Wunderground v.1.15,2013-03-07 08:23:00,
2013-03-07 00:34:00,52.3,49.2,30.00,East,88,0.0,0.0,89,0.00,,,0.00,Wunderground v.1.15,2013-03-07 08:34:00,
2013-03-07 00:44:00,52.5,49.4,30.00,East,88,0.0,0.0,89,0.00,,,0.00,Wunderground v.1.15,2013-03-07 08:44:00,
2013-03-07 00:54:00,52.6,49.1,30.00,East,88,0.0,0.0,88,0.00,,,0.00,Wunderground v.1.15,2013-03-07 08:54:00,
2013-03-07 01:04:00,52.7,49.2,30.00,East,88,0.0,0.0,88,0.00,,,0.00,Wunderground v.1.15,2013-03-07 09:04:00,
2013-03-07 01:14:00,52.8,49.3,30.00,East,88,0.0,0.0,88,0.00,,,0.00,Wunderground v.1.15,2013-03-07 09:14:00,
2013-03-07 01:24:00,52.9,49.4,30.00,East,88,0.0,0.0,88,0.00,,,0.00,Wunderground v.1.15,2013-03-07 09:24:00,
2013-03-07 01:34:00,52.9,49.4,30.00,East,88,0.0,0.0,88,0.00,,,0.00,Wunderground v.1.15,2013-03-07 09:34:00,
2013-03-07 01:44:00,53.0,49.5,30.00,East,88,0.0,0.0,88,0.00,,,0.00,Wunderground v.1.15,2013-03-07 09:44:00,
2013-03-07 01:53:00,53.1,49.3,30.00,East,88,0.0,0.0,87,0.00,,,0.00,Wunderground v.1.15,2013-03-07 09:53:00,
2013-03-07 02:04:00,53.1,49.6,30.00,East,88,0.0,0.0,88,0.00,,,0.00,Wunderground v.1.15,2013-03-07 10:04:00,
2013-03-07 02:14:00,52.9,49.4,30.00,East,88,0.0,0.0,88,0.00,,,0.00,Wunderground v.1.15,2013-03-07 10:14:00,
2013-03-07 02:24:00,52.8,49.9,29.99,East,88,0.0,0.0,90,0.00,,,0.00,Wunderground v.1.15,2013-03-07 10:24:00,
2013-03-07 02:34:00,52.8,49.9,29.99,East,88,0.0,0.0,90,0.00,,,0.00,Wunderground v.1.15,2013-03-07 10:34:00,
2013-03-07 02:44:00,52.5,49.7,29.99,SSE,153,0.0,0.0,90,0.00,,,0.00,Wunderground v.1.15,2013-03-07 10:44:00,
2013-03-07 02:54:00,52.1,49.6,29.99,SE,129,0.0,0.0,91,0.00,,,0.00,Wunderground v.1.15,2013-03-07 10:54:00,
2013-03-07 03:04:00,52.0,49.7,29.99,South,174,0.0,0.0,92,0.00,,,0.00,Wunderground v.1.15,2013-03-07 11:04:00,
2013-03-07 03:14:00,52.0,49.7,29.99,SSE,153,0.0,0.0,92,0.00,,,0.00,Wunderground v.1.15,2013-03-07 11:14:00,
2013-03-07 03:24:00,52.1,50.1,29.99,SSW,205,0.0,0.0,93,0.00,,,0.01,Wunderground v.1.15,2013-03-07 11:24:00,
2013-03-07 03:34:00,52.0,50.0,29.99,SSW,205,0.0,0.0,93,0.11,,,0.03,Wunderground v.1.15,2013-03-07 11:34:00,
2013-03-07 03:44:00,51.9,49.9,29.99,SSE,154,0.0,0.0,93,0.09,,,0.04,Wunderground v.1.15,2013-03-07 11:44:00,
2013-03-07 03:54:00,51.8,50.1,29.99,SSE,161,0.0,0.0,94,0.04,,,0.05,Wunderground v.1.15,2013-03-07 11:54:00,
2013-03-07 04:04:00,51.8,50.1,29.98,SE,128,0.0,0.0,94,0.08,,,0.06,Wunderground v.1.15,2013-03-07 12:04:00,
2013-03-07 04:14:00,51.5,49.8,29.99,ESE,119,0.0,0.0,94,0.00,,,0.06,Wunderground v.1.15,2013-03-07 12:14:00,
2013-03-07 04:24:00,51.4,49.7,29.99,SE,130,0.0,0.0,94,0.00,,,0.06,Wunderground v.1.15,2013-03-07 12:24:00,
2013-03-07 04:33:00,51.4,50.0,29.99,SE,130,0.0,0.0,95,0.00,,,0.06,Wunderground v.1.15,2013-03-07 12:33:00,
2013-03-07 04:44:00,51.3,49.9,29.98,ESE,112,0.0,0.0,95,0.00,,,0.06,Wunderground v.1.15,2013-03-07 12:44:00,
2013-03-07 04:54:00,51.1,49.7,29.99,East,83,0.0,0.0,95,0.00,,,0.06,Wunderground v.1.15,2013-03-07 12:54:00,
2013-03-07 05:04:00,51.2,49.8,29.99,NE,34,0.0,0.0,95,0.00,,,0.06,Wunderground v.1.15,2013-03-07 13:04:00,
2013-03-07 05:14:00,51.1,49.7,29.99,NE,52,0.0,0.0,95,0.00,,,0.06,Wunderground v.1.15,2013-03-07 13:14:00,
2013-03-07 05:24:00,50.8,49.4,29.98,ENE,58,0.0,0.0,95,0.00,,,0.06,Wunderground v.1.15,2013-03-07 13:24:00,
2013-03-07 05:34:00,50.7,49.3,29.98,East,83,0.0,0.0,95,0.00,,,0.06,Wunderground v.1.15,2013-03-07 13:34:00,
2013-03-07 05:44:00,50.7,49.3,29.99,ESE,123,0.0,0.0,95,0.00,,,0.06,Wunderground v.1.15,2013-03-07 13:44:00,
2013-03-07 05:54:00,50.7,49.3,29.99,ESE,123,0.0,0.0,95,0.00,,,0.06,Wunderground v.1.15,2013-03-07 13:54:00,
2013-03-07 06:04:00,50.8,49.4,29.99,ESE,123,0.0,0.0,95,0.00,,,0.06,Wunderground v.1.15,2013-03-07 14:04:00,
2013-03-07 06:14:00,50.9,49.5,29.99,ESE,123,0.0,0.0,95,0.00,,,0.06,Wunderground v.1.15,2013-03-07 14:14:00,
2013-03-07 06:24:00,51.0,49.6,29.99,ESE,123,0.0,0.0,95,0.00,,,0.06,Wunderground v.1.15,2013-03-07 14:24:00,
2013-03-07 06:34:00,51.1,49.7,29.99,ESE,123,0.0,0.0,95,0.00,,,0.07,Wunderground v.1.15,2013-03-07 14:34:00,
2013-03-07 06:44:00,51.2,49.8,30.00,ESE,123,0.0,0.0,95,0.00,,,0.07,Wunderground v.1.15,2013-03-07 14:44:00,
2013-03-07 06:54:00,51.4,50.0,30.00,ESE,123,0.0,0.0,95,0.00,,,0.07,Wunderground v.1.15,2013-03-07 14:54:00,
2013-03-07 07:04:00,51.5,50.1,30.00,ESE,123,0.0,0.0,95,0.00,,,0.08,Wunderground v.1.15,2013-03-07 15:04:00,
2013-03-07 07:14:00,51.5,50.1,30.00,ESE,123,0.0,0.0,95,0.04,,,0.09,Wunderground v.1.15,2013-03-07 15:14:00,
2013-03-07 07:24:00,51.7,50.3,30.00,ESE,123,0.0,0.0,95,0.04,,,0.09,Wunderground v.1.15,2013-03-07 15:24:00,
2013-03-07 07:34:00,51.8,50.4,30.00,ESE,112,0.0,0.0,95,0.00,,,0.09,Wunderground v.1.15,2013-03-07 15:34:00,
2013-03-07 07:43:00,52.0,50.6,30.00,ESE,112,0.0,0.0,95,0.00,,,0.09,Wunderground v.1.15,2013-03-07 15:43:00,
2013-03-07 07:54:00,52.1,50.7,30.00,SE,128,0.0,0.0,95,0.00,,,0.09,Wunderground v.1.15,2013-03-07 15:54:00,
2013-03-07 08:04:00,52.1,50.7,30.01,ENE,76,0.0,0.0,95,0.00,,,0.09,Wunderground v.1.15,2013-03-07 16:04:00,
2013-03-07 08:24:00,52.5,51.1,30.00,ENE,74,0.0,0.0,95,0.00,,,0.09,Wunderground v.1.15,2013-03-07 16:24:00,
2013-03-07 08:34:00,52.7,51.3,30.00,East,90,0.0,0.0,95,0.00,,,0.09,Wunderground v.1.15,2013-03-07 16:34:00,
2013-03-07 08:44:00,52.4,51.0,30.01,East,86,0.0,0.0,95,0.00,,,0.09,Wunderground v.1.15,2013-03-07 16:44:00,
2013-03-07 08:54:00,52.4,50.7,30.00,East,85,0.0,0.0,94,0.00,,,0.09,Wunderground v.1.15,2013-03-07 16:54:00,
2013-03-07 09:04:00,52.8,50.8,30.00,East,84,0.0,0.0,93,0.00,,,0.09,Wunderground v.1.15,2013-03-07 17:04:00,
2013-03-07 09:14:00,53.3,51.3,30.00,NE,43,0.0,0.0,93,0.00,,,0.09,Wunderground v.1.15,2013-03-07 17:14:00,
2013-03-07 09:24:00,53.5,51.2,30.00,ESE,112,0.0,0.0,92,0.00,,,0.09,Wunderground v.1.15,2013-03-07 17:24:00,
2013-03-07 09:33:00,53.6,51.0,30.00,East,83,0.0,0.0,91,0.00,,,0.09,Wunderground v.1.15,2013-03-07 17:33:00,
2013-03-07 09:44:00,53.8,51.2,30.00,ESE,119,0.0,0.0,91,0.00,,,0.09,Wunderground v.1.15,2013-03-07 17:44:00,
2013-03-07 09:54:00,54.1,51.2,30.00,ENE,78,0.0,0.0,90,0.00,,,0.09,Wunderground v.1.15,2013-03-07 17:54:00,
2013-03-07 10:04:00,54.4,51.2,30.00,East,93,0.0,0.0,89,0.00,,,0.09,Wunderground v.1.15,2013-03-07 18:04:00,
2013-03-07 10:14:00,54.6,50.8,30.00,SE,142,0.0,0.0,87,0.00,,,0.09,Wunderground v.1.15,2013-03-07 18:14:00,
2013-03-07 10:24:00,55.1,51.3,30.00,SE,135,0.0,0.0,87,0.00,,,0.09,Wunderground v.1.15,2013-03-07 18:24:00,
2013-03-07 10:34:00,55.1,51.0,30.00,SSW,192,1.0,1.0,86,0.00,,,0.09,Wunderground v.1.15,2013-03-07 18:34:00,
2013-03-07 10:43:00,55.0,50.6,30.00,South,184,1.0,1.0,85,0.00,,,0.09,Wunderground v.1.15,2013-03-07 18:43:00,
2013-03-07 10:54:00,55.1,50.0,30.00,SSW,200,0.0,4.0,83,0.00,,,0.09,Wunderground v.1.15,2013-03-07 18:54:00,
2013-03-07 11:03:00,55.4,51.0,30.00,SSE,165,1.0,1.0,85,0.00,,,0.09,Wunderground v.1.15,2013-03-07 19:03:00,
2013-03-07 11:14:00,55.4,51.0,30.00,SSE,155,0.0,0.0,85,0.00,,,0.09,Wunderground v.1.15,2013-03-07 19:14:00,
2013-03-07 11:24:00,55.0,51.2,30.00,SSW,196,2.0,2.0,87,0.00,,,0.09,Wunderground v.1.15,2013-03-07 19:24:00,
2013-03-07 11:33:00,55.0,50.9,30.00,SSW,202,1.0,1.0,86,0.00,,,0.09,Wunderground v.1.15,2013-03-07 19:33:00,
2013-03-07 11:44:00,55.2,51.1,29.99,South,183,1.0,1.0,86,0.00,,,0.09,Wunderground v.1.15,2013-03-07 19:44:00,
2013-03-07 11:54:00,55.6,51.5,29.99,South,188,1.0,1.0,86,0.00,,,0.09,Wunderground v.1.15,2013-03-07 19:54:00,
2013-03-07 12:03:00,55.5,50.1,29.99,South,180,2.0,4.0,82,0.00,,,0.09,Wunderground v.1.15,2013-03-07 20:03:00,
2013-03-07 12:14:00,56.0,50.3,29.98,SSW,195,0.0,0.0,81,0.00,,,0.09,Wunderground v.1.15,2013-03-07 20:14:00,
2013-03-07 12:34:00,56.7,49.6,29.97,South,182,1.0,1.0,77,0.00,,,0.09,Wunderground v.1.15,2013-03-07 20:34:00,
2013-03-07 12:44:00,56.5,48.7,29.97,SSW,211,0.0,0.0,75,0.00,,,0.09,Wunderground v.1.15,2013-03-07 20:44:00,
2013-03-07 12:54:00,56.2,50.1,29.97,SW,219,1.0,1.0,80,0.00,,,0.09,Wunderground v.1.15,2013-03-07 20:54:00,
2013-03-07 13:04:00,55.8,49.4,29.96,South,176,1.0,1.0,79,0.00,,,0.09,Wunderground v.1.15,2013-03-07 21:04:00,
2013-03-07 13:14:00,56.0,48.5,29.96,SW,223,1.0,1.0,76,0.00,,,0.09,Wunderground v.1.15,2013-03-07 21:14:00,
2013-03-07 13:24:00,56.3,48.8,29.95,South,187,0.0,0.0,76,0.00,,,0.09,Wunderground v.1.15,2013-03-07 21:24:00,
2013-03-07 13:34:00,56.4,48.6,29.95,SW,223,0.0,5.0,75,0.00,,,0.09,Wunderground v.1.15,2013-03-07 21:34:00,
2013-03-07 13:44:00,56.6,48.4,29.95,SSW,208,1.0,2.0,74,0.00,,,0.09,Wunderground v.1.15,2013-03-07 21:44:00,
2013-03-07 13:54:00,57.0,48.4,29.95,SW,235,0.0,0.0,73,0.00,,,0.09,Wunderground v.1.15,2013-03-07 21:54:00,
2013-03-07 14:04:00,56.8,49.0,29.95,SW,228,2.0,5.0,75,0.00,,,0.09,Wunderground v.1.15,2013-03-07 22:04:00,
2013-03-07 14:14:00,56.7,50.3,29.95,South,188,1.0,1.0,79,0.00,,,0.09,Wunderground v.1.15,2013-03-07 22:14:00,
2013-03-07 14:23:00,56.4,48.9,29.94,SW,223,1.0,1.0,76,0.00,,,0.09,Wunderground v.1.15,2013-03-07 22:23:00,
2013-03-07 14:34:00,56.6,49.1,29.95,South,189,0.0,0.0,76,0.00,,,0.09,Wunderground v.1.15,2013-03-07 22:34:00,
2013-03-07 14:44:00,56.6,48.4,29.95,South,169,1.0,1.0,74,0.00,,,0.09,Wunderground v.1.15,2013-03-07 22:44:00,
2013-03-07 14:54:00,56.2,48.0,29.95,South,186,2.0,2.0,74,0.00,,,0.09,Wunderground v.1.15,2013-03-07 22:54:00,
2013-03-07 15:04:00,55.9,48.1,29.94,SSE,168,3.0,3.0,75,0.00,,,0.09,Wunderground v.1.15,2013-03-07 23:04:00,
2013-03-07 15:14:00,56.0,47.8,29.95,SSE,159,3.0,4.0,74,0.00,,,0.09,Wunderground v.1.15,2013-03-07 23:14:00,
2013-03-07 15:24:00,56.3,47.8,29.95,SSE,157,1.0,1.0,73,0.00,,,0.09,Wunderground v.1.15,2013-03-07 23:24:00,
2013-03-07 15:44:00,56.5,49.0,29.94,South,189,3.0,3.0,76,0.00,,,0.09,Wunderground v.1.15,2013-03-07 23:44:00,
2013-03-07 15:54:00,56.0,49.9,29.94,South,180,2.0,2.0,80,0.00,,,0.09,Wunderground v.1.15,2013-03-07 23:54:00,
2013-03-07 16:04:00,56.3,49.9,29.94,SW,220,0.0,0.0,79,0.00,,,0.09,Wunderground v.1.15,2013-03-08 00:04:00,
2013-03-07 16:14:00,55.9,49.5,29.94,South,177,1.0,1.0,79,0.00,,,0.09,Wunderground v.1.15,2013-03-08 00:14:00,
2013-03-07 16:23:00,55.8,49.4,29.93,SW,218,0.0,0.0,79,0.00,,,0.09,Wunderground v.1.15,2013-03-08 00:23:00,
2013-03-07 16:33:00,56.0,49.6,29.93,SSW,210,0.0,0.0,79,0.00,,,0.09,Wunderground v.1.15,2013-03-08 00:33:00,
2013-03-07 16:44:00,55.9,49.5,29.93,South,174,0.0,0.0,79,0.00,,,0.09,Wunderground v.1.15,2013-03-08 00:44:00,
2013-03-07 16:54:00,56.0,49.9,29.93,SE,142,0.0,0.0,80,0.00,,,0.09,Wunderground v.1.15,2013-03-08 00:54:00,
2013-03-07 17:24:00,55.4,50.3,29.94,South,176,0.0,0.0,83,0.00,,,0.09,Wunderground v.1.15,2013-03-08 01:24:00,
2013-03-07 17:34:00,55.1,50.4,29.94,South,187,1.0,6.0,84,0.00,,,0.09,Wunderground v.1.15,2013-03-08 01:34:00,
2013-03-07 17:44:00,55.1,50.4,29.94,SSW,194,1.0,1.0,84,0.00,,,0.09,Wunderground v.1.15,2013-03-08 01:44:00,
2013-03-07 17:54:00,55.0,50.3,29.93,SSE,165,0.0,0.0,84,0.00,,,0.09,Wunderground v.1.15,2013-03-08 01:54:00,
2013-03-07 18:03:00,54.8,50.1,29.93,South,188,0.0,0.0,84,0.00,,,0.09,Wunderground v.1.15,2013-03-08 02:03:00,
2013-03-07 18:14:00,54.5,50.1,29.93,South,188,0.0,0.0,85,0.00,,,0.09,Wunderground v.1.15,2013-03-08 02:14:00,
2013-03-07 18:24:00,54.2,50.1,29.93,South,188,0.0,0.0,86,0.00,,,0.09,Wunderground v.1.15,2013-03-08 02:24:00,
2013-03-07 18:34:00,54.0,49.9,29.92,SSE,153,0.0,0.0,86,0.00,,,0.09,Wunderground v.1.15,2013-03-08 02:34:00,
2013-03-07 18:44:00,53.8,49.7,29.92,SSE,153,0.0,0.0,86,0.00,,,0.09,Wunderground v.1.15,2013-03-08 02:44:00,
2013-03-07 18:54:00,53.6,49.5,29.92,SSE,153,0.0,0.0,86,0.00,,,0.09,Wunderground v.1.15,2013-03-08 02:54:00,
2013-03-07 19:04:00,53.3,49.2,29.92,SSE,153,0.0,0.0,86,0.00,,,0.09,Wunderground v.1.15,2013-03-08 03:04:00,
2013-03-07 19:14:00,53.2,49.4,29.92,SSE,153,0.0,0.0,87,0.00,,,0.09,Wunderground v.1.15,2013-03-08 03:14:00,
2013-03-07 19:24:00,53.1,49.3,29.91,SSE,153,0.0,0.0,87,0.00,,,0.09,Wunderground v.1.15,2013-03-08 03:24:00,
2013-03-07 19:34:00,53.0,49.2,29.91,SSE,153,0.0,0.0,87,0.00,,,0.09,Wunderground v.1.15,2013-03-08 03:34:00,
2013-03-07 19:44:00,52.7,48.9,29.91,SSE,153,0.0,0.0,87,0.00,,,0.09,Wunderground v.1.15,2013-03-08 03:44:00,
2013-03-07 19:54:00,52.4,48.9,29.91,East,81,0.0,0.0,88,0.00,,,0.09,Wunderground v.1.15,2013-03-08 03:54:00,
2013-03-07 20:04:00,52.2,48.8,29.91,East,81,0.0,0.0,88,0.00,,,0.09,Wunderground v.1.15,2013-03-08 04:04:00,
2013-03-07 20:14:00,51.9,48.5,29.90,East,81,0.0,0.0,88,0.00,,,0.09,Wunderground v.1.15,2013-03-08 04:14:00,
2013-03-07 20:24:00,51.7,48.3,29.90,ESE,103,0.0,0.0,88,0.00,,,0.09,Wunderground v.1.15,2013-03-08 04:24:00,
2013-03-07 20:33:00,51.5,48.1,29.90,East,81,0.0,0.0,88,0.00,,,0.09,Wunderground v.1.15,2013-03-08 04:33:00,
2013-03-07 20:43:00,51.3,47.9,29.90,ENE,65,0.0,0.0,88,0.00,,,0.09,Wunderground v.1.15,2013-03-08 04:43:00,
2013-03-07 20:54:00,51.1,47.7,29.90,East,99,0.0,0.0,88,0.00,,,0.09,Wunderground v.1.15,2013-03-08 04:54:00,
2013-03-07 21:04:00,51.0,47.6,29.90,SE,138,0.0,0.0,88,0.00,,,0.09,Wunderground v.1.15,2013-03-08 05:04:00,
2013-03-07 21:14:00,51.0,47.6,29.90,SE,138,0.0,0.0,88,0.00,,,0.09,Wunderground v.1.15,2013-03-08 05:14:00,
2013-03-07 21:24:00,51.2,47.5,29.89,SE,138,0.0,0.0,87,0.00,,,0.09,Wunderground v.1.15,2013-03-08 05:24:00,
2013-03-07 21:34:00,51.3,47.3,29.89,East,85,0.0,0.0,86,0.00,,,0.09,Wunderground v.1.15,2013-03-08 05:34:00,
2013-03-07 21:44:00,51.2,46.8,29.89,ESE,103,0.0,0.0,85,0.00,,,0.09,Wunderground v.1.15,2013-03-08 05:44:00,
2013-03-07 21:53:00,51.0,46.3,29.89,SE,124,0.0,0.0,84,0.00,,,0.09,Wunderground v.1.15,2013-03-08 05:53:00,
2013-03-07 22:04:00,50.9,46.2,29.88,East,97,0.0,0.0,84,0.00,,,0.09,Wunderground v.1.15,2013-03-08 06:04:00,
2013-03-07 22:14:00,50.9,45.9,29.87,ENE,67,0.0,0.0,83,0.00,,,0.09,Wunderground v.1.15,2013-03-08 06:14:00,
2013-03-07 22:24:00,51.0,45.7,29.87,East,88,0.0,0.0,82,0.00,,,0.09,Wunderground v.1.15,2013-03-08 06:24:00,
2013-03-07 22:34:00,51.0,45.0,29.86,ENE,74,0.0,0.0,80,0.00,,,0.09,Wunderground v.1.15,2013-03-08 06:34:00,
2013-03-07 22:44:00,50.9,44.9,29.86,East,91,0.0,0.0,80,0.00,,,0.09,Wunderground v.1.15,2013-03-08 06:44:00,
2013-03-07 22:54:00,50.9,44.9,29.85,ENE,60,0.0,0.0,80,0.00,,,0.09,Wunderground v.1.15,2013-03-08 06:54:00,
2013-03-07 23:04:00,51.0,44.7,29.85,ENE,60,0.0,0.0,79,0.00,,,0.09,Wunderground v.1.15,2013-03-08 07:04:00,
2013-03-07 23:13:00,51.2,44.6,29.85,East,86,0.0,0.0,78,0.00,,,0.09,Wunderground v.1.15,2013-03-08 07:13:00,
2013-03-07 23:24:00,51.3,44.7,29.85,East,96,0.0,0.0,78,0.00,,,0.09,Wunderground v.1.15,2013-03-08 07:24:00,
2013-03-07 23:34:00,51.1,44.8,29.86,East,96,0.0,0.0,79,0.00,,,0.09,Wunderground v.1.15,2013-03-08 07:34:00,
2013-03-07 23:43:00,51.0,45.4,29.85,East,96,0.0,0.0,81,0.00,,,0.10,Wunderground v.1.15,2013-03-08 07:43:00,
2013-03-07 23:54:00,51.0,45.4,29.85,East,82,0.0,0.0,81,0.00,,,0.10,Wunderground v.1.15,2013-03-08 07:54:00,